RSC001P GCTS-GCXO

Flight info

Callsign RSC001P
Flight time 0h 12m
Altitude 10000
Route COSSE
Aircraft AT76/M-SDFGRY/LB1

Departure

Time 2026-04-22 23:55
Airport Tenerife Sur Airport (GCTS)

Arrival

Time 2026-04-23 00:08
Airport Tenerife Norte-Ciudad de La Laguna Airport (GCXO)
Time Latitude Longitude Altitude Speed Heading
2026-04-22 23:43 28.04513 -16.57803 219 ft 0 kts 338°
2026-04-22 23:51 28.04550 -16.57821 220 ft 17 kts 327°
2026-04-22 23:51 28.04520 -16.57925 220 ft 19 kts 198°
2026-04-22 23:52 28.04404 -16.57911 219 ft 14 kts 221°
2026-04-22 23:52 28.04349 -16.58056 219 ft 22 kts 249°
2026-04-22 23:52 28.04296 -16.58211 219 ft 19 kts 248°
2026-04-22 23:52 28.04249 -16.58345 219 ft 18 kts 248°
2026-04-22 23:53 28.04203 -16.58478 219 ft 18 kts 249°
2026-04-22 23:53 28.04166 -16.58608 218 ft 17 kts 249°
2026-04-22 23:53 28.04119 -16.58743 209 ft 20 kts 248°
2026-04-22 23:53 28.04074 -16.58873 209 ft 14 kts 248°
2026-04-22 23:54 28.04038 -16.58974 209 ft 14 kts 244°
2026-04-22 23:54 28.03959 -16.58979 213 ft 15 kts 135°
2026-04-22 23:54 28.03900 -16.58856 200 ft 18 kts 101°
2026-04-22 23:54 28.03940 -16.58705 197 ft 40 kts 69°
2026-04-22 23:55 28.04127 -16.58171 195 ft 103 kts 67°
2026-04-22 23:55 28.04433 -16.57294 475 ft 123 kts 67°
2026-04-22 23:55 28.04744 -16.56385 1071 ft 125 kts 68°
2026-04-22 23:55 28.05068 -16.55422 1335 ft 143 kts 68°
2026-04-22 23:56 28.05475 -16.54278 1474 ft 165 kts 66°
2026-04-22 23:56 28.05927 -16.53075 1919 ft 167 kts 67°
2026-04-22 23:56 28.06365 -16.51848 2355 ft 170 kts 68°
2026-04-22 23:56 28.06799 -16.50591 2787 ft 172 kts 68°
2026-04-22 23:57 28.07239 -16.49322 3230 ft 174 kts 68°
2026-04-22 23:57 28.07684 -16.48042 3674 ft 175 kts 68°
2026-04-22 23:57 28.08132 -16.46751 4119 ft 177 kts 68°
2026-04-22 23:57 28.08584 -16.45454 4563 ft 178 kts 68°
2026-04-22 23:58 28.09033 -16.44145 4985 ft 179 kts 70°
2026-04-22 23:58 28.09452 -16.42811 5408 ft 181 kts 70°
2026-04-22 23:58 28.09878 -16.41466 5812 ft 182 kts 70°
2026-04-22 23:58 28.10306 -16.40128 6211 ft 184 kts 70°
2026-04-22 23:59 28.10746 -16.38761 6603 ft 186 kts 70°
2026-04-22 23:59 28.11192 -16.37380 6967 ft 188 kts 69°
2026-04-22 23:59 28.11650 -16.35980 7309 ft 191 kts 70°
2026-04-22 23:59 28.12111 -16.34557 7652 ft 194 kts 70°
2026-04-23 00:00 28.13079 -16.31594 8175 ft 207 kts 60°
2026-04-23 00:00 28.14149 -16.30552 8452 ft 205 kts 22°
2026-04-23 00:00 28.15464 -16.29890 8726 ft 208 kts 22°
2026-04-23 00:01 28.16839 -16.29325 8929 ft 215 kts 13°
2026-04-23 00:01 28.18327 -16.28886 9001 ft 227 kts 11°
2026-04-23 00:01 28.19906 -16.28442 9035 ft 240 kts 11°
2026-04-23 00:01 28.21559 -16.27982 9046 ft 249 kts 11°
2026-04-23 00:02 28.22887 -16.27557 9056 ft 256 kts 14°
2026-04-23 00:02 28.24407 -16.27015 9054 ft 262 kts 15°
2026-04-23 00:02 28.26131 -16.26389 9056 ft 266 kts 15°
2026-04-23 00:02 28.27907 -16.25756 9058 ft 269 kts 14°
2026-04-23 00:03 28.29712 -16.25145 9062 ft 271 kts 14°
2026-04-23 00:03 28.31526 -16.24534 9069 ft 272 kts 14°
2026-04-23 00:03 28.33360 -16.23916 8835 ft 281 kts 14°
2026-04-23 00:03 28.35270 -16.23271 8415 ft 289 kts 15°
2026-04-23 00:04 28.37135 -16.22636 7969 ft 273 kts 15°
2026-04-23 00:04 28.38908 -16.22044 7506 ft 255 kts 15°
2026-04-23 00:04 28.40534 -16.21512 7021 ft 233 kts 14°
2026-04-23 00:04 28.42033 -16.21057 6538 ft 211 kts
2026-04-23 00:05 28.43419 -16.21239 6025 ft 195 kts 342°
2026-04-23 00:05 28.44478 -16.22073 5516 ft 186 kts 301°
2026-04-23 00:05 28.44966 -16.23453 5024 ft 191 kts 287°
2026-04-23 00:05 28.45359 -16.24863 4525 ft 182 kts 286°
2026-04-23 00:06 28.45712 -16.26209 3848 ft 175 kts 285°
2026-04-23 00:06 28.46054 -16.27515 3191 ft 169 kts 287°
2026-04-23 00:06 28.46444 -16.28709 2887 ft 153 kts 291°
2026-04-23 00:06 28.46806 -16.29749 2638 ft 130 kts 291°
2026-04-23 00:07 28.47120 -16.30664 2404 ft 123 kts 291°
2026-04-23 00:07 28.47414 -16.31585 2244 ft 122 kts 291°
2026-04-23 00:07 28.47714 -16.32496 2092 ft 125 kts 291°
2026-04-23 00:07 28.48016 -16.33399 2032 ft 112 kts 291°
2026-04-23 00:08 28.48193 -16.33934 2047 ft 41 kts 290°
2026-04-23 00:08 28.48306 -16.34149 2048 ft 23 kts 320°
2026-04-23 00:08 28.48411 -16.34254 2050 ft 19 kts 306°
2026-04-23 00:08 28.48461 -16.34395 2055 ft 19 kts 291°
2026-04-23 00:09 28.48514 -16.34553 2063 ft 23 kts 290°
2026-04-23 00:09 28.48580 -16.34669 2068 ft 13 kts 357°
2026-04-23 00:09 28.48654 -16.34636 2066 ft 6 kts 20°
2026-04-23 00:09 28.48670 -16.34629 2066 ft 0 kts 20°